Home   Weather   Geesthacht   Past weeks

Flag for Germany Past Weather in Geesthacht, Schleswig-Holstein, Germany — Yesterday and Last 2 Weeks

48 °F

Light rain. Partly sunny.

Feels Like: 46 °F
Forecast: 41 / 48 °F
Wind: 6 mph from Northeast

Location: Hamburg-Fuhlsbuettel

Current Time: Oct 22, 2016 at 2:00:38 PM

Latest Report: Oct 22, 2016 at 1:20 PM

Visibility: N/A

Pressure: 29.95 "Hg

Humidity: 87%

Dew Point: 45 °F

Location of GeesthachtLocation

Past Weather in Geesthacht — Graph


Geesthacht Temperature Yesterday

Maximum temperature yesterday: 50 °F (at 3:50 PM)
Minimum temperature yesterday: 45 °F (at 12:20 AM)
Average temperature yesterday: 47 °F

High & Low Weather Summary for the Past Weeks

High61 °F (Oct 18, 2:20 PM)100% (Oct 8, 1:50 AM)30.30 "Hg (Oct 8, 1:50 AM)
Low36 °F (Oct 9, 2:20 AM)58% (Oct 8, 3:50 PM)29.80 "Hg (Oct 15, 5:50 AM)
Average48 °F89%30.10 "Hg
* Reported Oct 7 12:20 PM — Oct 22 12:50 PM, Geesthacht, Weather by CustomWeather, © 2016

Note: Actual official high and low records may vary slightly from our data, if they occured in-between our weather recording intervals... More about our weather records


Geesthacht Weather History for the Previous 24 Hours

Scroll right to see more
Time TempWeatherWind HumidityBarometerVisibility
12:50 PM
Sat, Oct 22
48 °FLight rain. Broken clouds.3 mph87%29.95 "HgN/A
12:20 PM48 °FLight rain. Partly sunny.3 mph82%29.95 "HgN/A
11:50 AM46 °FPartly sunny.3 mph87%29.95 "Hg5 mi
11:20 AM46 °FPartly sunny.5 mph87%29.95 "Hg5 mi
10:50 AM46 °FBroken clouds.3 mph87%29.95 "Hg4 mi
10:20 AM45 °FScattered clouds.2 mph93%29.95 "Hg4 mi
9:50 AM45 °FFog.2 mph93%29.95 "Hg3 mi
9:20 AM43 °FFog.3 mph93%29.95 "Hg3 mi
8:50 AM41 °FQuite cool.3 mph100%29.95 "Hg3 mi
8:20 AM41 °FQuite cool.3 mph93%29.95 "Hg2 mi
7:50 AM41 °FQuite cool.5 mph93%29.95 "Hg2 mi
7:20 AM41 °FQuite cool.2 mph93%29.95 "Hg3 mi
6:50 AM41 °FFog.3 mph93%29.92 "Hg3 mi
6:20 AM43 °FPassing clouds.5 mph93%29.92 "Hg4 mi
5:50 AM43 °FPassing clouds.6 mph93%29.92 "Hg4 mi
5:20 AM43 °FPassing clouds.5 mph93%29.92 "Hg6 mi
4:50 AM45 °FPassing clouds.6 mph93%29.92 "Hg6 mi
4:20 AM45 °FPassing clouds.6 mph93%29.92 "Hg6 mi
3:50 AM45 °FPassing clouds.6 mph93%29.92 "Hg6 mi
3:20 AM45 °FPassing clouds.6 mph93%29.95 "Hg6 mi
2:20 AM45 °FPartly cloudy.6 mph93%29.95 "Hg5 mi
1:50 AM45 °FPartly cloudy.7 mph93%29.95 "Hg5 mi
1:20 AM45 °FPartly cloudy.7 mph93%29.92 "Hg5 mi
12:50 AM45 °FPartly cloudy.6 mph100%29.92 "Hg5 mi
12:20 AM46 °FPartly cloudy.5 mph93%29.95 "Hg5 mi
11:50 PM
Fri, Oct 21
45 °FPartly cloudy.5 mph100%29.95 "Hg5 mi
11:20 PM46 °FPartly cloudy.5 mph93%29.95 "Hg5 mi
10:50 PM45 °FPartly cloudy.6 mph100%29.95 "Hg5 mi
10:20 PM45 °FSprinkles. Passing clouds.6 mph100%29.92 "Hg5 mi
9:50 PM45 °FScattered showers. Partly cloudy.7 mph100%29.92 "Hg6 mi
9:20 PM45 °FPassing clouds.6 mph100%29.92 "HgN/A
8:50 PM45 °FPassing clouds.6 mph93%29.92 "HgN/A
8:20 PM46 °FPartly cloudy.5 mph93%29.92 "HgN/A
7:50 PM46 °FPartly cloudy.7 mph93%29.92 "HgN/A
7:20 PM46 °FRain. Partly cloudy.7 mph93%29.92 "Hg5 mi
6:50 PM48 °FLight rain. Partly cloudy.8 mph87%29.92 "HgN/A
6:20 PM48 °FLight rain. Partly cloudy.6 mph94%29.89 "HgN/A
5:50 PM48 °FLight rain. Broken clouds.5 mph87%29.89 "Hg5 mi
5:20 PM50 °FLight rain. Partly sunny.3 mph82%29.89 "HgN/A
4:50 PM50 °FBroken clouds.3 mph88%29.89 "HgN/A
4:20 PM50 °FPartly sunny.5 mph82%29.89 "HgN/A
3:50 PM50 °FBroken clouds.5 mph88%29.89 "HgN/A
3:20 PM48 °FBroken clouds.2 mph87%29.89 "HgN/A
2:50 PM48 °FPartly sunny.3 mph87%29.89 "HgN/A
2:20 PM48 °FScattered showers. Partly sunny.3 mph87%29.89 "HgN/A
Weather by CustomWeather, © 2016

See weather overviewHow to use our weather pages